Alturas, CA

12:14 PM PST on December 07, 2019 (GMT -0800)
Alturas Municipal

Weather History for KAAT - October, 2019

Change the Weather History Date:

Friday, October 11, 2019

  Actual Average Record
Temperature  
Mean Temperature 41 °F 48 °F  
Max Temperature 66 °F 68 °F 88 °F (1934)
Min Temperature 16 °F 29 °F 18 °F (1990)
Degree Days  
Heating Degree Days 24 17  
Month to date heating degree days 234 165  
Since 1 July heating degree days 540 542  
Cooling Degree Days 0 0  
Month to date cooling degree days 0 0  
Year to date cooling degree days 217 156  
Moisture  
Dew Point 13 °F    
Average Humidity 38    
Maximum Humidity 71    
Minimum Humidity 11    
Precipitation  
Precipitation 0.00 in 0.03 in 0.97 in (1962)
Month to date precipitation 0.03 0.23  
Year to date precipitation 12.26 9.89  
Sea Level Pressure  
Sea Level Pressure 30.16 in    
Wind  
Wind Speed 4 mph ()    
Max Wind Speed 12 mph    
Max Gust Speed 16 mph    
Visibility 9.2 miles    
Events      
T = Trace of Precipitation, MM = Missing Value Source: Averaged Metar Reports

Daily Weather History Graph

Daily Weather History Graph

Search for Another Location

Airport or City:

Astronomy

Oct. 11, 2019 Rise Set
Actual Time 7:09 AM PDT 6:27 PM PDT
Civil Twilight 6:41 AM PDT 6:55 PM PDT
Nautical Twilight 6:09 AM PDT 7:27 PM PDT
Astronomical Twilight 5:37 AM PDT 7:59 PM PDT
Moon 6:01 PM PDT (10/11) 4:52 AM PDT (10/11)
Length of Visible Light 12h 13m
Length of Day
11h 18m
Waxing Gibbous, 96% of the Moon is Illuminated
Oct 11
Waxing Gibbous
Oct 13
Full
Oct 21
Last Quarter
Oct 27
New
Nov 4
First Quarter

Hourly Weather History & Observations

Time (PDT) Temp. Windchill Dew Point Humidity Pressure Visibility Wind Dir Wind Speed Gust Speed Precip Events Conditions
12:55 AM 26.1 °F - 10.9 °F 53% 30.24 in 5.0 mi Calm Calm - N/A   Haze
1:55 AM 23.0 °F 18.4 °F 10.9 °F 60% 30.24 in 10.0 mi NNW 3.5 mph - N/A   Clear
2:55 AM 23.0 °F 17.0 °F 10.9 °F 60% 30.24 in 9.0 mi NNE 4.6 mph - N/A   Clear
3:55 AM 21.9 °F 15.7 °F 10.0 °F 60% 30.23 in 8.0 mi NE 4.6 mph - N/A   Clear
4:55 AM 17.1 °F - 9.0 °F 71% 30.23 in 10.0 mi Calm Calm - N/A   Clear
5:55 AM 21.0 °F 9.9 °F 10.0 °F 63% 30.22 in 10.0 mi NNE 10.4 mph - N/A   Clear
6:55 AM 18.0 °F 11.1 °F 9.0 °F 68% 30.25 in 10.0 mi Variable 4.6 mph - N/A   Clear
7:55 AM 24.1 °F - 10.9 °F 57% 30.25 in 10.0 mi Calm Calm - N/A   Clear
8:55 AM 37.0 °F 32.4 °F 15.1 °F 41% 30.23 in 10.0 mi ENE 5.8 mph - N/A   Clear
9:55 AM 48.0 °F - 12.9 °F 24% 30.21 in 10.0 mi ENE 9.2 mph - N/A   Clear
10:55 AM 53.1 °F - 10.0 °F 18% 30.19 in 10.0 mi East 5.8 mph - N/A   Clear
11:55 AM 59.0 °F - 10.0 °F 14% 30.17 in 10.0 mi SSE 8.1 mph - N/A   Clear
12:55 PM 61.0 °F - 10.0 °F 13% 30.15 in 10.0 mi SSE 8.1 mph - N/A   Clear
1:55 PM 64.0 °F - 10.9 °F 13% 30.12 in 10.0 mi SSE 6.9 mph - N/A   Clear
2:55 PM 64.9 °F - 10.9 °F 12% 30.10 in 10.0 mi SSE 8.1 mph - N/A   Clear
3:55 PM 66.0 °F - 10.9 °F 12% 30.08 in 10.0 mi Variable 6.9 mph - N/A   Clear
4:55 PM 66.0 °F - 10.9 °F 12% 30.07 in 10.0 mi SE 3.5 mph - N/A   Clear
5:55 PM 63.0 °F - 12.9 °F 14% 30.06 in 10.0 mi South 4.6 mph - N/A   Clear
6:55 PM 53.1 °F - 24.1 °F 32% 30.09 in 10.0 mi SE 4.6 mph - N/A   Clear
7:55 PM 45.0 °F 43.5 °F 18.0 °F 34% 30.12 in 6.0 mi NE 3.5 mph - N/A   Haze
8:55 PM 41.0 °F - 16.0 °F 36% 30.10 in 9.0 mi Calm Calm - N/A   Clear
9:55 PM 35.1 °F - 17.1 °F 48% 30.10 in 10.0 mi Calm Calm - N/A   Clear
10:55 PM 34.0 °F - 18.0 °F 52% 30.09 in 5.0 mi Calm Calm - N/A   Haze
11:55 PM 32.0 °F - 17.1 °F 54% 30.07 in 8.0 mi Calm Calm - N/A   Clear